COSMOS 1691 DEB, 43315

Orbit data source: Space-Track

COSMOS 1691 DEB, 43315 is space debris in LEO originally from a launch on Wed, 09 Oct 1985 UTC launched from the Plesetsk Missile And Space Complex (PKMTR). Debris objects in space refer to the collection of defunct objects orbiting the Earth. Examples of debris include non-operational satellites, rocket bodies, and fragments generated from explosions, collisions, or faulty payload assembly.

Loading next visibility...
Identifier
43315, 1985-094Z
Orbit
LEO
Country
Flag of CISCIS
Related business
Manufacturer
Unknown
Mission
Spacecraft
Bus & Motor
Unknown
Mass
Unknown
Launch date (UTC)
1985-10-09 (40 years ago)
Launch vehicle
Unknown
Launch site
Plesetsk Missile And Space Complex (PKMTR)
Object type
Payload
Rocket body
Debris
Shape & HBR
Unknown shape, 0.1 m
Radar Cross Section
Small (<0.1 m²)

Expand to show TLE details & history
Last TLE update: 1 day ago

TLE from 1 day ago
0 COSMOS 1691 DEB
1 43315U 85094Z   25340.26724014  .00000384  00000-0  18995-2 0  9991
2 43315  82.5637 280.3266 0026160  46.0621 314.2627 12.69170699557372
Epoch: 2025-12-06T06:24Z
TLE epoch observation values (Epoch: 2025-12-06T06:24:49.548Z)
Latitude
0.00004°
Longitude
108.82272°
Altitude
1,373.909 km
Speed
7.179 km/s
True Right ascension
18h 41m 18s
True Declination
0° 00' 00"
Sunlit
Object was in daylight at epoch
Visualization orbit readout
Latitude
Unknown
Longitude
Unknown
Altitude
Unknown
Speed
Unknown
Apparent Right ascension
Unknown
Apparent Declination
Unknown
Sunlit
N/A
Visualization observer readout
Local Sidereal Time
16:23:02
Azimuth
Unknown
Elevation
Unknown
Doppler factor
Unknown
Orbital elements
Apogee altitude
1,402.934 km
Perigee altitude
1,362.329 km
Semi-major axis
7,760.768 km
Eccentricity
0.00262
Inclination
82.5637°
RAAN
280.3266°
Arg. of periapsis
46.0621°
True anomaly
314.04753°
Mean anomaly
314.2627°
Eccentric anomaly
314.15516°
Mean motion
3.17458 °/min
Orbital period
113.4 mins
BSTAR
0.0018995
Loading maneuver chart data...
Computing Atmospheric mass density...
Loading historical data...
Loading historical data...
Loading historical data...
Loading historical data...
Loading historical data...
Loading historical data...
Loading historical data...

Documentation

Showing up to 5 results
|